[[{"header":{"parameterUnit":"m.s-1","parameterCategory":1,"la1":30.2991,"la2":30.254,"lo1":-89.0895,"lo2":-89.0444,"dy":0.0017,"dx":0.0017,"nx":28,"ny":28,"refTime":"2025-09-17T09:00:00:Z","depth":0,"parameterNumber":2,"parameterNumberName":"U-component_of_WINDS"},"data":[0,0,0,0,0,0,0,0,0,0,0,0,0,0,0,0,0,0,0,0,0,0,0,0,0,0,0,0,0,0,0,0,0,0,0,0,0,0,0,0,0,0,0,0,0,0,0,0,0,0,0,0,0,0,0,0,0,0,0.5268,0.5268,0,0.5255,0.5254,0.5254,0.5263,0.5263,0.5263,0.5264,0.5247,0.5247,0.5246,0,0,0,0,0,0,0,0,0,0,0,0,0,0.53,0.5299,0.5268,0.5268,0.5268,0.5255,0.5254,0.5254,0.5262,0.5263,0.5263,0.5264,0.5248,0.5247,0.5246,0,0,0,0,0,0,0,0,0,0,0,0,0,0.5286,0.5299,0.5268,0.5271,0.5271,0.5255,0.5254,0.5254,0.5262,0.5263,0.5264,0.5264,0.5248,0.5247,0.5246,0.5226,0,0,0.5242,0.5241,0,0,0,0,0,0,0,0,0.5287,0.5285,0.527,0.527,0.527,0.5261,0.526,0.5245,0.5262,0.5265,0.5264,0.5264,0.5251,0.525,0.5246,0.5225,0.5225,0.5242,0.5241,0.5241,0.524,0,0,0,0,0,0,0,0.5288,0.5285,0.5263,0.527,0.527,0.5272,0.527,0.5257,0.5255,0.5265,0.5266,0.5264,0.5251,0.5247,0.5246,0.5225,0.5242,0.5241,0.524,0.524,0.5186,0.5185,0,0,0,0,0,0,0.5289,0.5286,0.5263,0.5263,0.528,0.527,0.5269,0.5263,0.5255,0.5255,0.5264,0.5265,0.5249,0.5247,0.5245,0.5221,0.5241,0.524,0.5239,0.5187,0.5186,0.5185,0,0,0,0,0,0,0.5289,0.5287,0.5264,0.5274,0.5272,0.5269,0.5263,0.5263,0.5258,0.5254,0.5254,0.526,0.5249,0.5247,0.5231,0.522,0.5239,0.5238,0.5187,0.5186,0.5185,0.5172,0,0,0,0,0,0,0.529,0.5287,0.528,0.5274,0.5271,0.525,0.5262,0.5262,0.5257,0.5258,0.525,0.525,0.525,0.5232,0.5229,0.5219,0.5237,0.5188,0.5187,0.5186,0.5173,0.5171,0.5168,0,0,0,0,0,0.5291,0.5277,0.528,0.5277,0.5263,0.525,0.5248,0.5249,0.5256,0.5248,0.5245,0.525,0.5222,0.5231,0.5227,0.5216,0.5189,0.5187,0.5186,0.5175,0.5171,0.5168,0,0,0,0,0,0,0.528,0.5276,0.5279,0.5262,0.5256,0.5251,0.5242,0.5245,0.5237,0.5238,0.5239,0.5237,0.522,0.5217,0.5227,0.5196,0.5207,0.5204,0.5199,0.5196,0.5193,0.5194,0.5236,0,0,0,0,0,0.5276,0.5267,0.5263,0.5249,0.5246,0.5244,0.5239,0.524,0.5234,0.5231,0.5227,0.522,0.521,0.5203,0.5193,0.5173,0.5171,0.5164,0.5162,0.516,0.5157,0.5145,0.5141,0.518,0.518,0.518,0,0,0.5267,0.5263,0.5257,0.5246,0.5242,0.5231,0.5242,0.5231,0.5222,0.5229,0.5213,0.521,0.5203,0.5184,0.5176,0.5181,0.5146,0.5158,0.5156,0.5154,0.5143,0.5139,0.5136,0.5179,0.5179,0.5179,0,0,0.5244,0.5242,0.5228,0.5224,0.5217,0.5216,0.5213,0.5208,0.5206,0.519,0.5195,0.5185,0.5167,0.5161,0.5156,0.5131,0.5134,0.5128,0.5114,0.5102,0.5099,0.5097,0.5086,0.5083,0.5126,0.5126,0.5126,0,0.5233,0.5218,0.5221,0.5209,0.5203,0.521,0.5196,0.5191,0.5181,0.5177,0.5183,0.5161,0.5156,0.5136,0.513,0.5126,0.5121,0.5128,0.51,0.5097,0.5094,0.5085,0.5081,0.5125,0.5125,0.5125,0.5125,0,0.5205,0.5194,0.5184,0.5175,0.5169,0.5156,0.5155,0.5149,0.515,0.5149,0.5132,0.5127,0.5116,0.5111,0.5113,0.5091,0.5094,0.51,0.511,0.509,0.508,0.5077,0.5124,0.5124,0.5124,0.5125,0,0,0.5174,0.5167,0.5163,0.5158,0.5151,0.5143,0.513,0.512,0.5113,0.5106,0.5094,0.508,0.5085,0.5079,0.508,0.507,0.5048,0.5076,0.5076,0.507,0.5022,0.5016,0.5012,0.5051,0.505,0.505,0.5022,0,0.515,0.5128,0.513,0.5108,0.5098,0.5104,0.5092,0.5086,0.5084,0.5075,0.5072,0.5061,0.507,0.5066,0.5056,0.5053,0.5038,0.5055,0.5039,0.5038,0.5039,0.5007,0.5002,0.4976,0.5019,0.5018,0.5018,0,0.5119,0.5111,0.5089,0.5083,0.5079,0.5068,0.5058,0.505,0.5043,0.5042,0.5035,0.5038,0.5023,0.5035,0.5015,0.5026,0.5019,0.5017,0.5016,0.5013,0.5025,0.5002,0.4967,0.4963,0.5012,0.5012,0.5013,0,0.5097,0.5081,0.5065,0.5061,0.5055,0.5047,0.5044,0.5037,0.5031,0.5022,0.5018,0.5007,0.5001,0.4993,0.4992,0.5001,0.4971,0.4983,0.4969,0.4969,0.4961,0.4961,0.4923,0.496,0.496,0.496,0.496,0,0.5068,0.5054,0.5055,0.5045,0.5029,0.5031,0.5015,0.5012,0.5007,0.4996,0.5001,0.499,0.499,0.4979,0.4979,0.4961,0.4959,0.4957,0.4957,0.4956,0.4956,0.495,0.4951,0.4959,0.4959,0.4959,0.4959,0,0.504,0.5041,0.5024,0.5019,0.5017,0.5005,0.5,0.4991,0.499,0.4975,0.4972,0.497,0.4957,0.4956,0.4941,0.4941,0.4919,0.4922,0.4921,0.4921,0.4907,0.4907,0.4862,0.4856,0.4898,0.4898,0.4897,0,0.5022,0.5011,0.5005,0.4998,0.4994,0.4984,0.4977,0.4979,0.4971,0.4962,0.4953,0.4941,0.4931,0.4911,0.4907,0.4895,0.4896,0.4882,0.4895,0.4893,0.4894,0.4894,0.4892,0.4878,0.4878,0.4878,0.4877,0,0.4988,0.4988,0.4979,0.4969,0.4961,0.4954,0.4947,0.4941,0.4941,0.4933,0.492,0.4913,0.4898,0.4885,0.4874,0.4869,0.4872,0.4874,0.4869,0.4867,0.4867,0.4865,0.4913,0.4874,0.4874,0.4875,0.4875,0.4875,0.4962,0.4953,0.4947,0.4936,0.4931,0.4924,0.4914,0.4912,0.4902,0.489,0.4892,0.4877,0.487,0.4855,0.485,0.4838,0.4842,0.4837,0.4835,0.4833,0.4831,0.487,0.4836,0.4836,0.4836,0.4836,0.4836,0,0.4927,0.4924,0.4914,0.4904,0.4895,0.4901,0.4893,0.4885,0.4872,0.4866,0.4856,0.4841,0.4829,0.4824,0.4812,0.4803,0.4804,0.48,0.4799,0.4798,0.4828,0.4832,0.4799,0.4799,0.4799,0.4799,0.4799,0.4799,0.4908,0.4891,0.4891,0.4871,0.4868,0.4854,0.4849,0.4843,0.4837,0.482,0.481,0.4808,0.4801,0.4789,0.4777,0.4776,0.4771,0.4765,0.4764,0.4792,0.4796,0.4799,0.4803,0.4764,0.4764,0.4735,0.4735,0.4735]},{"header":{"parameterUnit":"m.s-1","parameterCategory":1,"la1":30.2991,"la2":30.254,"lo1":-89.0895,"lo2":-89.0444,"dy":0.0017,"dx":0.0017,"nx":28,"ny":28,"refTime":"2025-09-17T09:00:00:Z","depth":0,"parameterNumber":3,"parameterNumberName":"V-component_of_WINDS"},"data":[0,0,0,0,0,0,0,0,0,0,0,0,0,0,0,0,0,0,0,0,0,0,0,0,0,0,0,0,0,0,0,0,0,0,0,0,0,0,0,0,0,0,0,0,0,0,0,0,0,0,0,0,0,0,0,0,0,0,0.6664,0.6664,0,0.6675,0.6675,0.6675,0.6653,0.6652,0.6652,0.6651,0.6663,0.6664,0.6665,0,0,0,0,0,0,0,0,0,0,0,0,0,0.6622,0.6622,0.6664,0.6664,0.6664,0.6675,0.6675,0.6675,0.6653,0.6652,0.6651,0.6651,0.6663,0.6664,0.6665,0,0,0,0,0,0,0,0,0,0,0,0,0,0.6637,0.6623,0.6664,0.6654,0.6653,0.6675,0.6675,0.6675,0.6653,0.6652,0.6651,0.665,0.6662,0.6664,0.6665,0.6697,0,0,0.667,0.6671,0,0,0,0,0,0,0,0,0.6636,0.6639,0.6655,0.6655,0.6654,0.6662,0.6665,0.6683,0.6654,0.6653,0.6651,0.665,0.6663,0.6665,0.6669,0.6697,0.6698,0.667,0.6671,0.6672,0.6672,0,0,0,0,0,0,0,0.6635,0.6638,0.6668,0.6656,0.6655,0.6649,0.665,0.6668,0.6665,0.6653,0.6652,0.6653,0.6663,0.6668,0.667,0.6698,0.667,0.6671,0.6672,0.6673,0.675,0.6751,0,0,0,0,0,0,0.6635,0.6637,0.6668,0.6669,0.6642,0.6651,0.6652,0.666,0.6664,0.6664,0.6654,0.6652,0.6666,0.6668,0.667,0.6706,0.6672,0.6673,0.6674,0.6749,0.675,0.6752,0,0,0,0,0,0,0.6635,0.6638,0.6667,0.6652,0.6656,0.6653,0.6662,0.6661,0.6666,0.6665,0.6664,0.666,0.6665,0.6668,0.669,0.6706,0.6674,0.6675,0.6748,0.6749,0.6751,0.6778,0,0,0,0,0,0,0.6633,0.6638,0.665,0.6653,0.6657,0.6687,0.6663,0.6662,0.6669,0.6666,0.667,0.667,0.6665,0.6688,0.6691,0.6707,0.6676,0.6746,0.6748,0.675,0.6776,0.678,0.6785,0,0,0,0,0,0.6632,0.6658,0.6651,0.6655,0.6672,0.6688,0.669,0.6684,0.667,0.6682,0.6681,0.667,0.6703,0.669,0.6694,0.6711,0.6745,0.6748,0.675,0.6774,0.6779,0.6784,0,0,0,0,0,0,0.6658,0.6658,0.6651,0.6678,0.6683,0.6685,0.67,0.669,0.6699,0.6697,0.6688,0.6689,0.6712,0.6714,0.6699,0.674,0.6722,0.6725,0.6738,0.6744,0.6748,0.6747,0.6678,0,0,0,0,0,0.6667,0.6681,0.668,0.6704,0.6707,0.6703,0.671,0.6704,0.6709,0.6711,0.6712,0.6717,0.6728,0.6736,0.6747,0.6776,0.6776,0.6789,0.6793,0.6797,0.68,0.6814,0.6819,0.676,0.676,0.676,0,0,0.6686,0.6688,0.6697,0.671,0.6713,0.6726,0.6705,0.6721,0.6731,0.6714,0.6734,0.6735,0.674,0.6765,0.6776,0.6767,0.6816,0.68,0.6803,0.6804,0.6817,0.6822,0.6827,0.6762,0.6761,0.6761,0,0,0.6727,0.673,0.675,0.6753,0.6758,0.6755,0.6759,0.6762,0.6761,0.6781,0.6768,0.678,0.68,0.6804,0.6808,0.6849,0.6838,0.6852,0.6875,0.6889,0.6893,0.6897,0.6911,0.6916,0.6855,0.6856,0.6856,0,0.675,0.677,0.6761,0.6777,0.6783,0.6767,0.6787,0.679,0.6799,0.6803,0.6792,0.6816,0.6819,0.6844,0.6853,0.6858,0.6862,0.6852,0.6893,0.6897,0.6901,0.6913,0.6919,0.6857,0.6857,0.6857,0.6857,0,0.6797,0.6811,0.6826,0.6833,0.6841,0.6859,0.6852,0.686,0.6854,0.6851,0.6871,0.6873,0.6883,0.6889,0.6883,0.6912,0.6906,0.6895,0.6876,0.6908,0.692,0.6925,0.6859,0.6859,0.6858,0.6858,0,0,0.6855,0.6856,0.6862,0.6864,0.6868,0.6878,0.6895,0.6904,0.6911,0.6917,0.693,0.6947,0.6935,0.6941,0.6934,0.6946,0.6976,0.6933,0.6933,0.694,0.7008,0.7016,0.7021,0.6969,0.697,0.6971,0.7007,0,0.6895,0.6923,0.6915,0.6943,0.6955,0.6939,0.6953,0.6957,0.6955,0.6964,0.6962,0.6973,0.6959,0.6961,0.6972,0.697,0.699,0.6968,0.6981,0.6981,0.6979,0.7027,0.7036,0.707,0.7011,0.7012,0.7013,0,0.6945,0.6951,0.698,0.698,0.6985,0.6998,0.7004,0.7014,0.7017,0.7015,0.7019,0.701,0.7026,0.7007,0.7028,0.7013,0.7018,0.7018,0.7019,0.7019,0.6999,0.7028,0.7081,0.7085,0.702,0.7019,0.7019,0,0.6983,0.6999,0.7018,0.7021,0.7021,0.703,0.7031,0.7033,0.7038,0.7044,0.7048,0.7056,0.706,0.7066,0.7059,0.7047,0.708,0.7062,0.7078,0.7078,0.7086,0.7085,0.7139,0.709,0.709,0.709,0.709,0,0.7028,0.7046,0.7035,0.7047,0.7066,0.7056,0.7076,0.7074,0.7076,0.7086,0.7074,0.7084,0.7075,0.7084,0.7079,0.7096,0.7098,0.7096,0.7094,0.7097,0.7097,0.7099,0.7096,0.7091,0.7091,0.7091,0.7091,0,0.7074,0.7067,0.7087,0.7085,0.7085,0.7099,0.7097,0.7107,0.7104,0.7117,0.712,0.7114,0.7124,0.7118,0.7129,0.7125,0.7147,0.7142,0.7146,0.7144,0.716,0.7159,0.7217,0.7223,0.7172,0.7172,0.7172,0,0.7102,0.7115,0.7114,0.712,0.7121,0.7131,0.7136,0.7127,0.7133,0.7136,0.7146,0.7155,0.7161,0.7178,0.7174,0.7182,0.7177,0.7197,0.7178,0.718,0.7176,0.7175,0.7176,0.72,0.7201,0.7202,0.7202,0,0.7153,0.7149,0.7156,0.7163,0.7169,0.7173,0.7177,0.7183,0.7173,0.718,0.719,0.7195,0.7204,0.7213,0.7219,0.7219,0.7209,0.7208,0.7212,0.7214,0.7215,0.7214,0.7155,0.7207,0.7206,0.7206,0.7206,0.7205,0.719,0.7201,0.7201,0.7209,0.7211,0.7214,0.7223,0.722,0.7228,0.7235,0.7229,0.724,0.7241,0.7248,0.7249,0.7257,0.7249,0.7256,0.7257,0.7258,0.726,0.7214,0.7259,0.7259,0.7258,0.7258,0.7258,0,0.7239,0.7238,0.7246,0.7251,0.7257,0.7246,0.7249,0.7255,0.7265,0.7267,0.7273,0.7283,0.7291,0.7288,0.7295,0.7302,0.7297,0.7304,0.7303,0.7303,0.7268,0.7263,0.7308,0.7308,0.7308,0.7307,0.7307,0.7307,0.7266,0.7282,0.7277,0.7294,0.7293,0.7303,0.7306,0.7308,0.7309,0.7321,0.7327,0.7325,0.7324,0.7331,0.7337,0.7336,0.7338,0.7347,0.7344,0.7311,0.7306,0.7301,0.7296,0.7347,0.7348,0.7378,0.7378,0.7379]}]]